Regional Weather Roundup
Issued by NWS

Home | Current Version | Previous Version | Graphics & Text | Print | Product List | Glossary On
Versions: 1 2 3 4 5 6 7 8 9 10 11 12 13 14 15 16 17 18 19 20 21 22 23 24 25 26 27 28 29 30 31 32 33 34 35 36 37 38 39 40 41 42 43 44 45 46 47 48 49 50
000
ASUS43 KTOP 051459
RWRKS

WEATHER ROUNDUP FOR KANSAS
NATIONAL WEATHER SERVICE GOODLAND KS
900 AM CST MON DEC 05 2016

NOTE:  "FAIR" INDICATES FEW OR NO CLOUDS BELOW 12,000 FEET WITH NO
SIGNIFICANT WEATHER AND/OR OBSTRUCTIONS TO VISIBILITY.

KSZ001>006-013>018-027>032-041>047-051600-
NORTHWEST KANSAS

CITY           SKY/WX    TMP DP  RH WIND       PRES   REMARKS
GOODLAND       CLOUDY    36  17  46 W8        29.56F
HAYS           SUNNY     38  28  67 S18       29.66F WCI  28
HILL CITY      SUNNY     39  27  62 SW12      29.62F WCI  32
RUSSELL        SUNNY     38  30  73 S20       29.65F WCI  28
$$

KSZ061>065-074>080-084>089-051600-
SOUTHWEST KANSAS

CITY           SKY/WX    TMP DP  RH WIND       PRES   REMARKS
DODGE CITY     SUNNY     35  29  78 S17       29.66F WCI  25
ELKHART          N/A     34  19  54 SW16        N/A  WCI  24
GARDEN CITY    SUNNY     33  28  81 S9        29.61F
GREAT BEND     SUNNY     40  31  70 S21       29.69F WCI  30
LIBERAL        SUNNY     36  27  69 S14       29.65F WCI  27
$$

KSZ066>073-081>083-090>101-051600-
SOUTHEAST KANSAS

CITY           SKY/WX    TMP DP  RH WIND       PRES   REMARKS
CHANUTE        FOG       37  36  96 SE6       29.91S VSB 1/4
COFFEYVILLE    CLOUDY    36  36 100 S5        29.92S FOG
HUTCHINSON     SUNNY     37  33  85 S10       29.78F WCI  30
MEDICINE LODGE   N/A     34  31  88 S10       29.77F WCI  26
NEWTON         SUNNY     38  32  79 S15       29.80F WCI  29
PARSONS        SUNNY     38  37  97 S6        29.92S FOG
WICHITA INTL   MOSUNNY   36  33  89 S12       29.82F WCI  28
WICHITA JABRA  SUNNY     37  35  92 S13       29.83F WCI  29
WINFIELD       SUNNY     37  35  92 SE5       29.87F
$$

KSZ007>012-019>026-033>040-048>060-102>105-051600-
NORTHEAST KANSAS

CITY           SKY/WX    TMP DP  RH WIND       PRES   REMARKS
CONCORDIA      SUNNY     39  31  72 S16       29.71F WCI  30
EMPORIA        FOG       32  32 100 S13       29.85S VSB 1/2 WCI  22
LAWRENCE       SUNNY     34  34 100 SE9       29.88F FOG
MANHATTAN      SUNNY     41  35  79 S5        29.79F
OLATHE IND     CLOUDY    36  36 100 S12       29.89F FOG     WCI  28
OLATHE EXE     MOSUNNY   36  35  96 S9        29.90F
SALINA         SUNNY     39  33  79 S15       29.75F WCI  31
TOPEKA BILLARD SUNNY     38  34  85 SE10      29.85F WCI  31
TOPEKA FORBES  SUNNY     38  35  89 S12       29.84F WCI  30
$$




USA.gov is the U.S. government's official web portal to all federal, state and local government web resources and services.